#datint,netname,site,siteID,timestamp,IntT,BattV,AirT2,AirT,AirT_Avg,AirT_Max,AirT_Min,RH_Avg,RH_Max,RH_Min,EA_Avg,Td_Avg,Td_Max,Td_Min,WindS_Smp,WindS_Avg,WindD_Avg,WindD_SD,WindS_Max,ETo,ETr,SoilT4,SoilT8,SoilVWC8,SolarW_Avg,wetstate_Avg,wetT_Avg,Precip_accum,Precip_WPG,Precip_TB
15min,AgWx,beryljct,423,20OCT2020:00:00:00,44.3,12.86,39.3,38.6,41.0,42.9,38.6,41,56,34,0.441,18.7,24.2,16.0,0.636,2.1,172,27,3.7,-0.00003,-0.00002,56.2,58.0,9,0,.,.,4.24,0.00,0.00
15min,AgWx,beryljct,423,20OCT2020:00:15:00,43.4,12.85,38.6,37.8,38.5,39.8,37.5,50,57,44,0.377,21.5,24.0,17.8,1.798,1.3,209,46,3.0,-0.00013,-0.00017,55.9,58.0,9,0,.,.,4.25,0.00,0.00
15min,AgWx,beryljct,423,20OCT2020:00:30:00,42.5,12.85,39.0,38.4,37.1,38.4,36.0,50,57,38,0.297,20.0,23.2,14.8,3.99,3.5,323,3.1,4.2,0.00004,0.00007,55.7,57.9,9,0,.,.,4.25,0.00,0.00
15min,AgWx,beryljct,423,20OCT2020:00:45:00,41.8,12.82,38.5,36.9,38.2,39.8,36.6,46,56,37,0.371,18.8,22.6,14.5,2.105,2.6,339,14,4.5,-0.00000,0.00003,55.4,57.9,9,0,.,.,4.25,0.00,0.00
15min,AgWx,beryljct,423,20OCT2020:01:00:00,40.9,12.84,34.4,34.1,35.1,37.5,32.8,43,49,35,0.261,14.6,19.4,11.1,2.126,2.4,28,28,4.2,-0.00001,0.00001,55.1,57.8,9,0,.,.,4.25,0.00,0.00
15min,AgWx,beryljct,423,20OCT2020:01:15:00,39.8,12.82,33.9,33.2,33.5,35.0,32.8,44,48,37,0.301,13.8,15.6,11.2,2.389,2.2,14,38,3.9,-0.00003,-0.00001,54.9,57.8,9,0,.,.,4.25,0.00,0.00
15min,AgWx,beryljct,423,20OCT2020:01:30:00,38.8,12.82,33.0,32.7,32.9,33.5,32.6,45,48,42,0.286,13.9,15.7,12.1,2.389,2.7,319,3.0,3.3,0.00001,0.00003,54.6,57.7,9,0,.,.,4.25,0.00,0.00
15min,AgWx,beryljct,423,20OCT2020:01:45:00,38.0,12.8,32.9,32.3,32.3,32.7,32.0,47,51,41,0.272,14.4,16.1,11.4,0,1.9,324,3.5,3.6,-0.00006,-0.00006,54.4,57.7,9,0,.,.,4.25,0.00,0.00
15min,AgWx,beryljct,423,20OCT2020:02:00:00,37.2,12.8,31.2,31.2,32.3,32.9,31.2,46,52,40,0.308,13.9,16.3,11.1,3.42,1.9,204,6.9,4.9,-0.00006,-0.00006,54.1,57.6,9,0,.,.,4.26,0.00,0.00
15min,AgWx,beryljct,423,20OCT2020:02:15:00,36.5,12.79,32.7,32.0,31.8,32.4,31.0,47,53,44,0.304,14.1,15.9,12.1,0.088,1.9,175,11,4.6,-0.00005,-0.00005,53.9,57.5,9,0,.,.,4.26,0.00,0.00
15min,AgWx,beryljct,423,20OCT2020:02:30:00,35.9,12.79,33.0,32.0,31.6,32.2,30.7,57,64,48,0.335,17.9,19.9,14.2,3.902,2.8,135,20,4.1,-0.00002,-0.00001,53.6,57.5,9,0,.,.,4.26,0.00,0.00
15min,AgWx,beryljct,423,20OCT2020:02:45:00,35.4,12.78,33.0,33.2,32.1,33.3,30.7,53,58,47,0.303,16.7,18.6,14.6,3.705,3.8,174,12,5.4,0.00004,0.00007,53.4,57.4,9,0,.,.,4.25,0.00,0.00
15min,AgWx,beryljct,423,20OCT2020:03:00:00,35.2,12.76,33.9,34.2,33.9,34.5,33.0,46,48,44,0.307,15.2,16.4,14.3,2.653,3.7,178,6.1,4.8,0.00006,0.00010,53.1,57.3,9,0,.,.,4.26,0.00,0.00
15min,AgWx,beryljct,423,20OCT2020:03:15:00,35.4,12.75,37.6,38.6,37.1,39.9,32.6,44,54,38,0.325,16.8,17.9,15.7,1.315,2.3,184,10,3.9,-0.00002,0.00000,52.9,57.3,9,0,.,.,4.26,0.00,0.00
15min,AgWx,beryljct,423,20OCT2020:03:30:00,35.7,12.74,32.6,33.7,35.5,38.3,33.7,50,62,40,0.407,18.7,22.1,16.1,1.841,0.9,273,42,2.7,-0.00016,-0.00022,52.6,57.2,9,0,.,.,4.26,0.00,0.00
15min,AgWx,beryljct,423,20OCT2020:03:45:00,35.6,12.74,30.9,32.5,33.9,34.3,32.5,46,65,41,0.284,15.3,22.6,12.8,1.6,2.4,352,9.8,3.2,-0.00002,0.00000,52.4,57.1,9,0,.,.,4.26,0.00,0.00
15min,AgWx,beryljct,423,20OCT2020:04:00:00,35.1,12.72,31.5,31.0,30.7,32.3,30.4,54,60,47,0.313,15.8,18.2,14.1,0,0.4,334,1.0,1.6,-0.00020,-0.00029,52.2,57.0,9,0,.,.,4.26,0.00,0.00
15min,AgWx,beryljct,423,20OCT2020:04:15:00,34.5,12.72,32.5,31.4,31.7,33.1,31.0,51,58,45,0.331,15.8,19.1,14.2,2.762,1.7,103,57,4.1,-0.00008,-0.00009,52.0,56.9,9,0,.,.,4.26,0.00,0.00
15min,AgWx,beryljct,423,20OCT2020:04:30:00,33.9,12.7,31.1,30.6,30.2,31.8,29.1,58,66,51,0.292,17.0,20.0,14.4,1.71,2.7,185,9.7,4.0,-0.00003,-0.00002,51.7,56.9,9,0,.,.,4.26,0.00,0.00
15min,AgWx,beryljct,423,20OCT2020:04:45:00,33.2,12.67,29.9,30.0,29.8,31.3,27.8,59,73,50,0.341,16.8,20.3,14.3,3.771,2.8,171,12,4.8,-0.00002,-0.00001,51.5,56.8,9,0,.,.,4.26,0.00,0.00
15min,AgWx,beryljct,423,20OCT2020:05:00:00,32.5,12.67,28.6,28.6,28.9,30.0,28.5,62,71,57,0.376,17.5,20.4,15.4,0,1.6,193,2.0,3.7,-0.00010,-0.00012,51.3,56.7,9,0,.,.,4.26,0.00,0.00
15min,AgWx,beryljct,423,20OCT2020:05:15:00,31.9,12.67,27.1,26.6,28.0,28.7,26.6,64,74,51,0.362,17.3,20.5,12.7,0,1.7,149,12,3.5,-0.00009,-0.00011,51.1,56.6,9,0,.,.,4.26,0.00,0.00
15min,AgWx,beryljct,423,20OCT2020:05:30:00,31.3,12.66,29.1,28.1,27.4,28.1,26.5,71,79,63,0.351,19.3,21.8,16.2,1.622,1.2,263,34,2.9,-0.00013,-0.00017,50.9,56.5,9,0,.,.,4.26,0.00,0.00
15min,AgWx,beryljct,423,20OCT2020:05:45:00,30.9,12.64,30.3,29.5,28.7,29.5,27.8,57,67,51,0.283,15.4,18.5,13.7,0.723,1.7,303,23,2.5,-0.00009,-0.00010,50.7,56.4,9,0,.,.,4.27,0.00,0.00
15min,AgWx,beryljct,423,20OCT2020:06:00:00,30.6,12.64,29.1,28.9,29.6,30.1,28.9,51,56,45,0.275,13.5,15.4,11.1,1.315,0.4,306,38,2.0,-0.00019,-0.00029,50.5,56.3,9,0,.,.,4.26,0.00,0.00
15min,AgWx,beryljct,423,20OCT2020:06:15:00,30.4,12.63,28.8,28.2,28.3,28.9,27.8,57,63,51,0.329,14.9,17.2,12.9,0.811,0.7,42,4.0,1.3,-0.00017,-0.00023,50.2,56.2,9,0,.,.,4.26,0.00,0.00
15min,AgWx,beryljct,423,20OCT2020:06:30:00,30.0,12.63,27.6,27.1,27.6,28.5,27.1,62,71,58,0.321,16.5,18.9,14.9,0,0.4,48,0.1,1.4,-0.00019,-0.00028,50.0,56.1,9,0,.,.,4.26,0.00,0.00
15min,AgWx,beryljct,423,20OCT2020:06:45:00,29.6,12.61,28.2,27.8,27.7,28.5,27.1,67,72,63,0.372,18.1,20.0,16.2,0.855,0.6,111,13,2.3,-0.00017,-0.00025,49.8,56.1,9,0,.,.,4.27,0.00,0.00
15min,AgWx,beryljct,423,20OCT2020:07:00:00,29.3,12.6,28.2,27.6,27.8,28.3,27.2,68,74,61,0.313,18.4,20.1,15.9,1.556,0.8,331,41,2.2,-0.00016,-0.00023,49.6,55.9,9,0,.,.,4.27,0.00,0.00
15min,AgWx,beryljct,423,20OCT2020:07:15:00,29.3,12.61,26.5,27.6,28.3,30.2,27.6,62,74,47,0.258,16.7,20.5,11.3,2.674,2.4,332,19,3.5,0.00014,0.00024,49.4,55.8,9,0,.,.,4.27,0.00,0.00
15min,AgWx,beryljct,423,20OCT2020:07:30:00,29.0,12.61,27.4,26.6,25.9,27.3,25.3,64,77,51,0.287,15.4,19.3,11.7,2.653,1.8,141,79,3.4,0.00010,0.00017,49.3,55.7,9,0,.,.,4.27,0.00,0.00
15min,AgWx,beryljct,423,20OCT2020:07:45:00,28.6,12.61,27.3,26.2,25.8,26.7,24.8,63,67,56,0.272,14.9,16.2,12.8,3.223,3.2,165,21,4.5,0.00017,0.00029,49.0,55.7,9,1,.,.,4.26,0.00,0.00
15min,AgWx,beryljct,423,20OCT2020:08:00:00,28.1,12.62,25.6,24.7,25.2,26.6,24.5,67,77,53,0.321,15.6,18.5,11.3,4.143,1.9,134,52,4.1,0.00012,0.00019,48.9,55.5,9,9,.,.,4.27,0.01,0.00
15min,AgWx,beryljct,423,20OCT2020:08:15:00,28.1,12.76,28.8,27.4,26.9,28.2,24.8,56,69,50,0.288,13.2,16.0,12.0,4.998,4.4,192,2.7,5.6,0.00039,0.00059,48.7,55.4,9,42,.,.,4.27,0.00,0.00
15min,AgWx,beryljct,423,20OCT2020:08:30:00,29.1,13.09,33.6,32.8,30.7,32.8,27.6,52,57,48,0.305,14.9,15.7,14.0,1.841,3.3,177,6.6,5.4,0.00051,0.00072,48.5,55.3,9,86,.,.,4.26,0.00,0.00
15min,AgWx,beryljct,423,20OCT2020:08:45:00,31.3,13.53,36.9,36.3,34.2,36.3,32.8,47,52,42,0.316,16.1,18.1,14.3,3.069,2.3,184,2.0,3.5,0.00064,0.00083,48.3,55.3,9,128,.,.,4.26,0.00,0.00
15min,AgWx,beryljct,423,20OCT2020:09:00:00,34.6,14.19,40.1,39.5,38.2,39.5,36.4,43,45,40,0.339,17.5,19.3,16.0,2.258,2.8,169,9.6,3.6,0.00089,0.00115,48.2,55.2,9,170,.,.,4.26,0.00,0.00
15min,AgWx,beryljct,423,20OCT2020:09:15:00,38.2,14.65,42.0,41.5,40.6,41.5,39.5,39,45,36,0.369,17.7,21.4,15.1,4.604,3.8,156,13,5.2,0.00118,0.00156,48.0,55.0,9,217,.,.,4.26,0.00,0.00
15min,AgWx,beryljct,423,20OCT2020:09:30:00,41.5,14.62,43.3,42.9,42.3,42.9,41.5,39,43,35,0.332,19.2,21.3,17.0,4.187,4.8,145,5.0,6.0,0.00146,0.00193,47.9,54.9,9,263,.,.,4.25,0.00,0.00
15min,AgWx,beryljct,423,20OCT2020:09:45:00,44.4,14.5,45.7,45.1,44.0,45.1,42.9,37,40,35,0.385,19.4,21.2,17.5,2.411,3.2,129,11,5.0,0.00160,0.00199,47.8,54.8,9,309,.,.,4.25,0.00,0.00
15min,AgWx,beryljct,423,20OCT2020:10:00:00,47.3,14.47,48.2,47.4,46.2,47.4,45.1,36,41,33,0.430,21.0,24.8,17.9,2.477,2.1,130,14,2.9,0.00179,0.00212,47.8,54.8,9,356,.,.,4.25,0.00,0.00
15min,AgWx,beryljct,423,20OCT2020:10:15:00,50.3,14.43,50.4,50.0,48.4,50.0,47.4,37,40,33,0.461,23.1,25.1,20.8,2.258,2.3,112,13,3.4,0.00207,0.00244,47.8,54.6,9,400,.,.,4.25,0.00,0.00
15min,AgWx,beryljct,423,20OCT2020:10:30:00,53.2,14.4,52.1,51.6,50.6,51.9,49.6,34,38,31,0.420,23.5,26.4,21.2,0.614,1.6,87,19,2.5,0.00231,0.00265,47.9,54.5,9,445,.,.,4.24,0.00,0.00
15min,AgWx,beryljct,423,20OCT2020:10:45:00,56.3,14.35,54.9,54.3,53.0,54.3,51.6,28,33,26,0.374,20.9,23.9,19.5,0,0.9,8.2,21,2.4,0.00254,0.00283,48.0,54.5,9,485,.,.,4.24,0.00,0.00
15min,AgWx,beryljct,423,20OCT2020:11:00:00,59.6,14.39,55.7,56.0,55.3,56.1,54.3,26,30,24,0.363,21.3,24.9,19.4,1.71,1.3,343,13,2.9,0.00275,0.00311,48.2,54.4,9,498,.,.,4.23,0.00,0.00
15min,AgWx,beryljct,423,20OCT2020:11:15:00,62.0,13.87,57.5,57.6,56.9,57.7,55.9,24,26,22,0.383,20.2,22.0,18.2,3.179,1.9,324,23,3.5,0.00306,0.00353,48.5,54.3,9,533,.,.,4.23,0.00,0.00
15min,AgWx,beryljct,423,20OCT2020:11:30:00,64.0,13.85,60.5,58.5,58.1,59.0,57.4,23,26,21,0.406,20.7,24.0,18.3,1.14,1.5,323,24,4.4,0.00326,0.00370,48.8,54.2,9,571,.,.,4.23,0.00,0.00
15min,AgWx,beryljct,423,20OCT2020:11:45:00,65.7,13.8,61.0,60.2,59.7,60.4,58.9,24,29,21,0.480,23.2,27.8,20.0,2.696,2.0,62,22,4.9,0.00353,0.00406,49.1,54.1,9,602,.,.,4.23,0.00,0.00
15min,AgWx,beryljct,423,20OCT2020:12:00:00,67.0,13.82,61.5,61.7,61.2,62.4,60.4,25,31,21,0.429,25.5,31.2,20.8,3.376,3.3,50,22,6.1,0.00386,0.00458,49.5,54.0,9,629,.,.,4.22,0.00,0.00
15min,AgWx,beryljct,423,20OCT2020:12:15:00,68.3,13.75,62.8,63.1,62.6,64.4,61.5,23,28,20,0.467,24.2,28.4,21.5,2.762,1.6,123,53,3.9,0.00387,0.00438,50.0,54.0,9,650,.,.,4.22,0.00,0.00
15min,AgWx,beryljct,423,20OCT2020:12:30:00,69.7,13.76,64.2,64.3,64.0,65.3,62.7,23,28,20,0.505,25.2,31.4,22.8,5.327,1.5,137,61,5.7,0.00400,0.00451,50.5,53.9,9,669,.,.,4.22,0.00,0.00
15min,AgWx,beryljct,423,20OCT2020:12:45:00,70.7,13.72,65.0,64.4,64.3,64.8,63.7,25,31,20,0.470,27.8,33.5,22.9,6.138,3.9,75,30,6.4,0.00433,0.00519,51.1,53.9,9,681,.,.,4.21,0.00,0.00
15min,AgWx,beryljct,423,20OCT2020:13:00:00,71.0,13.69,68.4,65.9,65.1,66.2,64.3,22,29,19,0.503,25.8,31.4,21.9,1.82,3.8,41,26,7.6,0.00441,0.00529,51.7,53.9,9,689,.,.,4.21,0.00,0.00
15min,AgWx,beryljct,423,20OCT2020:13:15:00,71.9,13.65,69.3,67.6,66.7,67.6,65.8,20,25,18,0.440,24.7,29.6,21.8,2.126,2.0,26,50,3.8,0.00424,0.00485,52.3,53.8,9,686,.,.,4.21,0.00,0.00
15min,AgWx,beryljct,423,20OCT2020:13:30:00,72.9,13.66,67.8,68.5,67.9,68.8,67.1,19,23,17,0.431,23.9,29.0,21.6,7.125,3.6,357,42,7.9,0.00457,0.00547,53.0,53.8,9,695,.,.,4.21,0.00,0.00
15min,AgWx,beryljct,423,20OCT2020:13:45:00,73.8,13.6,70.0,69.5,69.2,70.4,68.4,19,22,16,0.417,24.5,28.8,22.3,4.494,5.0,354,21,8.4,0.00481,0.00595,53.6,53.8,9,693,.,.,4.21,0.00,0.00
15min,AgWx,beryljct,423,20OCT2020:14:00:00,74.6,13.59,69.1,69.7,69.6,70.2,69.0,19,27,17,0.518,25.4,34.0,22.3,4.801,4.2,32,29,7.7,0.00468,0.00571,54.3,53.9,9,685,.,.,4.21,0.00,0.00
15min,AgWx,beryljct,423,20OCT2020:14:15:00,75.5,13.57,70.7,70.7,70.4,71.2,69.5,18,24,16,0.416,24.3,31.0,21.8,1.074,2.0,32,47,4.8,0.00432,0.00497,54.9,53.9,9,676,.,.,4.21,0.00,0.00
15min,AgWx,beryljct,423,20OCT2020:14:30:00,76.9,13.53,73.3,71.1,71.1,71.7,70.6,17,20,15,0.435,23.8,28.1,20.8,0,2.6,320,34,5.3,0.00434,0.00511,55.6,53.9,9,660,.,.,4.20,0.00,0.00
15min,AgWx,beryljct,423,20OCT2020:14:45:00,78.1,13.57,71.3,72.1,71.9,72.5,71.4,16,19,14,0.463,23.5,27.3,20.7,2.85,1.7,289,33,4.4,0.00409,0.00469,56.2,54.0,9,644,.,.,4.20,0.00,0.00
15min,AgWx,beryljct,423,20OCT2020:15:00:00,79.3,13.52,71.4,72.5,72.5,73.1,71.9,15,18,14,0.385,22.8,27.3,20.1,2.477,1.9,314,47,4.0,0.00398,0.00462,56.8,54.1,9,622,.,.,4.20,0.00,0.00
15min,AgWx,beryljct,423,20OCT2020:15:15:00,80.2,13.58,72.3,72.7,72.9,74.2,72.1,15,20,13,0.393,21.8,29.6,19.7,0.723,1.2,194,88,2.5,0.00358,0.00407,57.4,54.2,9,583,.,.,4.20,0.00,0.00
15min,AgWx,beryljct,423,20OCT2020:15:30:00,80.9,13.48,73.1,73.4,73.5,74.5,72.6,15,19,13,0.520,22.5,29.1,19.4,4.494,2.2,289,48,4.7,0.00359,0.00426,58.0,54.3,9,557,.,.,4.20,0.00,0.00
15min,AgWx,beryljct,423,20OCT2020:15:45:00,81.3,13.45,74.6,74.6,73.7,75.1,72.9,14,17,13,0.390,21.1,25.8,19.1,1.337,1.7,274,56,5.1,0.00335,0.00392,58.5,54.4,9,536,.,.,4.20,0.00,0.00
15min,AgWx,beryljct,423,20OCT2020:16:00:00,81.6,13.43,76.6,74.1,74.2,75.3,73.3,13,17,12,0.426,20.5,26.4,18.6,0.658,1.8,180,30,4.9,0.00306,0.00364,59.0,54.5,9,491,.,.,4.21,0.00,0.00
15min,AgWx,beryljct,423,20OCT2020:16:15:00,81.8,13.4,73.4,73.4,73.8,75.5,73.1,14,18,12,0.383,21.7,27.9,19.2,0,1.0,119,51,1.9,0.00265,0.00303,59.4,54.6,9,463,.,.,4.21,0.00,0.00
15min,AgWx,beryljct,423,20OCT2020:16:30:00,82.0,13.45,72.8,73.0,73.2,73.6,72.9,18,26,14,0.650,26.5,36.0,21.4,2.214,1.5,117,14,4.5,0.00248,0.00293,59.9,54.8,9,421,.,.,4.20,0.00,0.00
15min,AgWx,beryljct,423,20OCT2020:16:45:00,81.7,13.38,72.7,72.9,72.9,73.1,72.8,21,31,15,0.613,30.3,40.8,23.2,2.389,1.9,119,15,3.1,0.00227,0.00277,60.3,54.9,9,379,.,.,4.21,0.01,0.00
15min,AgWx,beryljct,423,20OCT2020:17:00:00,80.9,13.38,73.0,72.2,72.4,72.9,72.0,23,30,17,0.519,32.7,38.9,25.4,2.258,2.9,111,9.5,4.2,0.00216,0.00281,60.6,55.1,9,334,.,.,4.20,0.00,0.00
15min,AgWx,beryljct,423,20OCT2020:17:15:00,79.8,13.44,71.3,71.6,72.0,72.8,71.2,26,35,14,0.742,34.7,42.5,21.1,3.157,2.7,115,14,3.7,0.00179,0.00236,60.9,55.2,9,288,.,.,4.21,0.00,0.00
15min,AgWx,beryljct,423,20OCT2020:17:30:00,78.4,13.45,71.3,71.1,71.6,72.6,70.7,25,34,16,0.652,33.6,41.5,23.0,3.639,3.4,99,9.0,4.2,0.00159,0.00225,61.2,55.4,9,242,.,.,4.21,0.01,0.00
15min,AgWx,beryljct,423,20OCT2020:17:45:00,77.0,13.52,71.9,71.7,70.7,71.7,69.9,27,34,17,0.472,34.5,40.9,25.0,3.617,3.3,112,4.9,4.2,0.00126,0.00187,61.4,55.5,9,197,.,.,4.21,0.00,0.00
15min,AgWx,beryljct,423,20OCT2020:18:00:00,75.5,13.54,70.8,71.1,71.3,72.0,70.1,21,26,17,0.497,29.0,33.7,25.1,3.288,3.7,107,6.3,4.7,0.00080,0.00116,61.5,55.7,9,153,.,.,4.21,0.00,0.00
15min,AgWx,beryljct,423,20OCT2020:18:15:00,73.8,13.58,69.2,69.2,68.9,71.1,66.9,28,39,19,0.582,34.2,41.3,26.4,2.477,2.5,117,8.4,3.2,0.00044,0.00068,61.5,55.9,9,110,.,.,4.22,0.00,0.00
15min,AgWx,beryljct,423,20OCT2020:18:30:00,71.9,13.21,67.4,67.7,69.7,71.4,67.6,22,29,17,0.629,28.3,34.3,23.2,1.907,1.8,136,19,2.4,0.00019,0.00033,61.5,56.0,9,66,.,.,4.22,0.00,0.00
15min,AgWx,beryljct,423,20OCT2020:18:45:00,69.4,13.1,65.7,66.2,67.1,67.7,66.2,22,30,17,0.395,26.3,34.3,21.2,1.798,1.2,188,9.6,1.8,-0.00015,-0.00018,61.5,56.2,9,12,.,.,4.22,0.00,0.00
15min,AgWx,beryljct,423,20OCT2020:19:00:00,65.9,13.06,59.1,55.9,63.9,66.1,55.9,21,32,18,0.483,22.5,27.9,20.5,4.099,2.8,212,6.8,4.5,0.00017,0.00030,61.3,56.3,9,4,.,.,4.23,0.01,0.00
15min,AgWx,beryljct,423,20OCT2020:19:15:00,61.7,13.03,55.7,57.3,56.3,59.1,53.7,29,35,21,0.416,23.8,27.2,19.2,3.705,3.7,206,2.6,4.0,0.00021,0.00034,61.1,56.5,9,1,.,.,4.23,0.00,0.00
15min,AgWx,beryljct,423,20OCT2020:19:30:00,59.3,13.02,61.4,60.5,59.6,62.5,55.3,22,28,19,0.375,20.5,23.3,18.5,4.143,3.7,190,7.5,4.3,0.00027,0.00042,60.9,56.6,9,0,.,.,4.23,0.01,0.00
15min,AgWx,beryljct,423,20OCT2020:19:45:00,58.3,13,61.9,61.8,61.7,62.2,60.6,20,21,19,0.367,19.9,20.6,19.3,4.45,4.5,185,3.6,5.1,0.00040,0.00059,60.6,56.8,9,0,.,.,4.23,0.00,0.00
15min,AgWx,beryljct,423,20OCT2020:20:00:00,58.0,13,60.2,60.5,60.7,61.8,60.2,20,21,19,0.365,19.4,20.4,18.6,4.034,4.5,186,4.2,5.0,0.00038,0.00057,60.3,56.9,9,0,.,.,4.23,0.00,0.00
15min,AgWx,beryljct,423,20OCT2020:20:15:00,57.7,12.99,58.7,58.1,59.9,61.0,58.1,21,25,20,0.387,20.3,23.0,19.3,4.056,4.5,180,7.8,5.2,0.00037,0.00055,60.0,57.0,10,0,.,.,4.23,0.00,0.00
15min,AgWx,beryljct,423,20OCT2020:20:30:00,56.8,12.98,53.1,51.0,56.4,59.3,50.4,26,36,22,0.390,21.6,24.5,19.8,4.034,4.4,166,12,5.9,0.00031,0.00046,59.7,57.1,9,0,.,.,4.23,0.00,0.00
15min,AgWx,beryljct,423,20OCT2020:20:45:00,54.8,12.97,49.5,47.7,50.0,53.4,46.7,34,42,28,0.395,22.9,26.8,20.2,5.415,3.7,88,79,5.6,0.00016,0.00025,59.3,57.2,9,0,.,.,4.23,0.00,0.00
15min,AgWx,beryljct,423,20OCT2020:21:00:00,52.7,12.95,48.3,46.0,47.0,49.2,44.6,38,49,31,0.438,22.5,26.6,19.8,5.02,4.0,67,23,6.1,0.00015,0.00023,59.0,57.3,9,0,.,.,4.24,0.00,0.00
15min,AgWx,beryljct,423,20OCT2020:21:15:00,51.1,12.96,46.3,44.8,46.5,48.5,44.5,42,49,36,0.467,24.5,26.5,22.1,2.696,3.1,96,37,5.7,0.00006,0.00011,58.7,57.3,9,0,.,.,4.24,0.00,0.00
15min,AgWx,beryljct,423,20OCT2020:21:30:00,49.8,12.95,44.6,45.3,47.0,49.3,44.9,40,46,33,0.461,23.7,25.3,21.2,0,1.5,101,32,3.2,-0.00010,-0.00012,58.4,57.4,9,0,.,.,4.24,0.00,0.00
15min,AgWx,beryljct,423,20OCT2020:21:45:00,48.7,12.94,49.6,48.4,46.5,49.7,44.7,43,48,35,0.441,25.4,27.5,22.8,5.546,2.4,327,23,5.7,-0.00002,0.00001,58.1,57.4,9,0,.,.,4.24,0.00,0.00
15min,AgWx,beryljct,423,20OCT2020:22:00:00,48.1,12.92,51.4,49.3,47.2,49.3,44.5,37,45,31,0.375,22.1,25.3,19.1,2.653,3.9,306,15,6.0,0.00015,0.00024,57.7,57.5,9,0,.,.,4.24,0.00,0.00
15min,AgWx,beryljct,423,20OCT2020:22:15:00,47.6,12.92,42.5,42.4,47.3,51.1,42.4,37,49,27,0.452,21.9,24.6,18.4,0.855,1.9,275,29,4.3,-0.00005,-0.00003,57.4,57.5,9,0,.,.,4.24,0.00,0.00
15min,AgWx,beryljct,423,20OCT2020:22:30:00,46.6,12.91,43.8,43.3,43.8,45.4,42.5,47,51,41,0.477,25.1,26.0,23.1,0,0.7,333,18,2.7,-0.00022,-0.00031,57.1,57.5,9,0,.,.,4.24,0.00,0.00
15min,AgWx,beryljct,423,20OCT2020:22:45:00,45.6,12.89,46.0,44.2,44.4,47.1,43.2,44,50,37,0.425,24.0,26.0,21.9,2.565,0.8,227,77,2.6,-0.00022,-0.00030,56.7,57.5,9,0,.,.,4.24,0.00,0.00
15min,AgWx,beryljct,423,20OCT2020:23:00:00,44.9,12.9,43.4,42.9,43.8,46.1,40.7,42,52,36,0.385,22.3,24.6,20.7,2.324,2.4,144,39,3.9,-0.00001,0.00001,56.4,57.5,9,0,.,.,4.24,0.00,0.00
15min,AgWx,beryljct,423,20OCT2020:23:15:00,44.3,12.89,48.2,46.7,44.8,48.3,40.4,35,45,28,0.355,18.8,21.2,16.6,2.411,2.5,236,16,3.7,0.00002,0.00007,56.1,57.5,9,0,.,.,4.24,0.00,0.00
15min,AgWx,beryljct,423,20OCT2020:23:30:00,43.4,12.88,42.8,42.3,44.6,50.2,39.9,39,52,25,0.383,20.3,23.9,16.1,0,0.6,251,1.6,2.4,-0.00023,-0.00034,55.8,57.5,9,0,.,.,4.25,0.00,0.00
15min,AgWx,beryljct,423,20OCT2020:23:45:00,42.7,12.87,43.1,43.5,42.1,44.0,40.1,42,50,35,0.357,20.8,22.9,18.3,0.877,0.7,181,20,1.6,-0.00022,-0.00031,55.5,57.5,9,0,.,.,4.25,0.00,0.00
15min,AgWx,beryljct,423,21OCT2020:00:00:00,42.0,12.86,43.6,42.3,41.2,44.0,38.0,39,46,33,0.304,17.8,19.8,14.8,2.192,1.5,183,5.4,2.3,-0.00009,-0.00011,55.2,57.4,9,0,.,.,4.25,0.00,0.00
15min,AgWx,beryljct,423,21OCT2020:00:15:00,41.6,12.85,44.8,45.8,41.4,45.8,38.3,41,53,30,0.312,18.8,23.3,14.2,5.787,2.9,195,34,5.8,0.00004,0.00008,54.9,57.4,9,0,.,.,4.25,0.00,0.00
15min,AgWx,beryljct,423,21OCT2020:00:30:00,41.4,12.85,35.3,35.6,38.2,46.0,35.0,46,60,30,0.281,18.9,22.7,13.6,2.828,3.4,177,11,5.8,0.00006,0.00011,54.6,57.4,9,0,.,.,4.25,0.00,0.00
15min,AgWx,beryljct,423,21OCT2020:00:45:00,40.3,12.84,36.4,35.4,35.5,36.7,33.9,41,49,34,0.342,13.7,18.5,9.4,1.929,3.3,178,8.7,5.0,0.00006,0.00010,54.4,57.3,9,0,.,.,4.25,0.00,0.00
15min,AgWx,bigpiney,439,20OCT2020:00:00:00,38.9,12.61,33.2,34.7,33.4,35.7,30.7,64,69,60,0.413,22.6,24.4,20.3,7.738,4.4,188,19,7.8,0.00005,0.00008,44.1,44.6,44,0,0,0.0,0.13,0.00,0.00
15min,AgWx,bigpiney,439,20OCT2020:00:15:00,37.7,12.59,33.3,30.1,33.2,35.7,30.0,64,68,61,0.384,22.4,24.6,19.9,4.406,4.6,207,21,8.1,0.00006,0.00009,44.1,44.6,44,0,0,0.0,0.13,0.00,0.00
15min,AgWx,bigpiney,439,20OCT2020:00:30:00,36.8,12.59,33.3,32.8,34.3,36.6,30.5,64,71,59,0.428,23.4,24.9,21.6,3.047,3.3,213,20,5.7,0.00002,0.00004,44.0,44.6,44,0,0,0.0,0.13,0.00,0.00
15min,AgWx,bigpiney,439,20OCT2020:00:45:00,36.2,12.58,35.9,36.7,35.7,37.3,32.8,63,68,59,0.434,24.1,25.2,22.9,6.27,3.7,231,11,6.3,0.00004,0.00007,44.0,44.7,44,0,0,0.0,0.13,0.00,0.00
15min,AgWx,bigpiney,439,20OCT2020:01:00:00,35.8,12.58,39.0,37.8,35.3,38.0,31.6,62,69,59,0.454,23.8,25.8,21.2,2.653,3.7,213,17,6.8,0.00004,0.00007,43.9,44.6,44,0,0,0.0,0.13,0.00,0.00
15min,AgWx,bigpiney,439,20OCT2020:01:15:00,35.6,12.57,34.4,35.0,37.6,39.8,35.0,59,63,55,0.436,24.4,25.7,23.3,3.551,5.0,151,31,8.4,0.00011,0.00015,43.9,44.6,44,0,0,0.0,0.13,0.00,0.00
15min,AgWx,bigpiney,439,20OCT2020:01:30:00,35.7,12.57,37.6,40.3,36.9,41.1,33.5,61,66,52,0.443,24.5,25.7,22.8,7.475,4.5,86,36,8.6,0.00008,0.00012,43.9,44.5,44,0,0,0.0,0.13,0.00,0.00
15min,AgWx,bigpiney,439,20OCT2020:01:45:00,36.2,12.53,44.0,40.3,39.0,44.2,36.4,56,60,47,0.463,24.4,26.7,21.7,2.477,4.7,34,42,11.7,0.00012,0.00017,43.8,44.6,44,0,0,0.0,0.13,0.00,0.00
15min,AgWx,bigpiney,439,20OCT2020:02:00:00,36.8,12.55,34.3,37.7,41.2,42.7,37.7,52,56,49,0.428,24.7,25.7,23.3,1.951,5.3,29,41,12.5,0.00017,0.00023,43.8,44.6,44,0,0,0.0,0.13,0.00,0.00
15min,AgWx,bigpiney,439,20OCT2020:02:15:00,37.2,12.54,36.0,34.4,36.8,39.7,33.7,59,64,54,0.432,23.7,25.0,22.0,7.519,2.2,178,44,7.5,-0.00002,-0.00001,43.7,44.6,44,0,0,0.0,0.13,0.00,0.00
15min,AgWx,bigpiney,439,20OCT2020:02:30:00,37.1,12.54,41.3,40.6,36.1,40.6,34.7,62,64,55,0.475,24.2,26.1,23.1,4.165,6.8,159,15,10.0,0.00013,0.00017,43.7,44.6,44,0,0,0.0,0.13,0.00,0.00
15min,AgWx,bigpiney,439,20OCT2020:02:45:00,37.2,12.53,38.1,38.1,38.7,41.4,35.1,57,63,53,0.439,24.6,25.7,23.2,2.258,4.1,88,56,8.6,0.00009,0.00013,43.6,44.6,44,0,0,0.0,0.13,0.00,0.00
15min,AgWx,bigpiney,439,20OCT2020:03:00:00,37.4,12.52,35.6,40.0,38.5,42.8,36.1,57,62,49,0.423,24.5,26.0,23.1,4.384,3.2,107,71,6.5,0.00004,0.00008,43.5,44.6,44,0,0,0.0,0.13,0.00,0.00
15min,AgWx,bigpiney,439,20OCT2020:03:15:00,37.5,12.52,37.3,41.3,39.3,41.6,38.0,55,57,51,0.448,24.5,25.6,22.9,0.11,2.0,140,86,5.8,-0.00002,-0.00001,43.5,44.5,44,0,0,0.0,0.13,0.00,0.00
15min,AgWx,bigpiney,439,20OCT2020:03:30:00,37.6,12.5,37.5,38.0,40.7,43.0,38.0,52,56,48,0.436,24.5,25.6,22.9,3.31,2.8,9.2,50,6.1,0.00004,0.00008,43.5,44.5,44,0,0,0.0,0.13,0.00,0.00
15min,AgWx,bigpiney,439,20OCT2020:03:45:00,37.9,12.5,42.7,41.8,40.1,41.8,37.9,55,59,54,0.483,25.4,26.6,23.8,7.695,6.5,304,34,10.8,0.00018,0.00024,43.4,44.5,44,0,0,0.0,0.13,0.00,0.00
15min,AgWx,bigpiney,439,20OCT2020:04:00:00,38.7,12.49,42.5,43.6,43.8,45.8,41.9,50,54,47,0.475,26.4,26.8,25.8,5.239,8.3,285,11,12.9,0.00029,0.00037,43.3,44.6,44,0,0,0.0,0.13,0.00,0.00
15min,AgWx,bigpiney,439,20OCT2020:04:15:00,39.7,12.49,40.8,41.8,42.1,43.5,41.0,52,54,49,0.474,25.9,26.4,25.4,5.415,6.2,266,7.7,7.3,0.00020,0.00027,43.3,44.5,44,0,0,0.0,0.13,0.00,0.00
15min,AgWx,bigpiney,439,20OCT2020:04:30:00,40.1,12.49,41.2,41.3,40.8,41.9,39.7,55,57,53,0.483,25.9,26.6,25.1,6.292,6.8,255,7.1,8.3,0.00019,0.00025,43.3,44.5,44,0,0,0.0,0.13,0.00,0.00
15min,AgWx,bigpiney,439,20OCT2020:04:45:00,40.3,12.47,41.5,41.8,41.4,42.5,40.7,54,56,52,0.476,26.1,26.4,25.9,7.278,5.6,259,14,7.8,0.00016,0.00022,43.2,44.5,44,0,0,0.0,0.13,0.00,0.00
15min,AgWx,bigpiney,439,20OCT2020:05:00:00,40.5,12.46,39.1,38.8,40.9,42.0,38.8,55,58,53,0.462,25.8,26.5,25.1,6.116,6.4,240,9.8,10.7,0.00019,0.00025,43.2,44.5,44,0,0,0.0,0.13,0.00,0.00
15min,AgWx,bigpiney,439,20OCT2020:05:15:00,40.3,12.46,38.4,36.7,37.9,41.3,36.2,59,61,54,0.448,24.7,26.2,23.9,6.029,3.7,115,49,7.0,0.00006,0.00010,43.1,44.5,44,0,0,0.0,0.13,0.00,0.00
15min,AgWx,bigpiney,439,20OCT2020:05:30:00,39.8,12.45,37.7,36.9,38.2,40.1,36.7,58,61,55,0.443,24.5,25.5,23.6,2.938,3.6,107,41,7.7,0.00006,0.00010,43.1,44.5,44,0,0,0.0,0.13,0.00,0.00
15min,AgWx,bigpiney,439,20OCT2020:05:45:00,39.2,12.44,41.5,37.6,37.1,38.2,35.1,59,63,57,0.450,24.2,24.8,22.7,3.047,2.5,115,57,4.7,-0.00000,0.00001,43.0,44.5,44,0,0,0.0,0.13,0.00,0.00
15min,AgWx,bigpiney,439,20OCT2020:06:00:00,38.8,12.44,38.5,39.3,39.4,41.0,37.7,57,60,54,0.468,25.2,26.0,24.4,0,2.1,259,27,5.4,-0.00002,-0.00000,43.0,44.4,44,0,0,0.0,0.13,0.00,0.00
15min,AgWx,bigpiney,439,20OCT2020:06:15:00,38.7,12.42,46.1,46.1,42.1,46.1,39.3,53,57,47,0.500,26.0,27.1,25.1,4.538,2.7,270,58,8.8,0.00004,0.00007,42.9,44.4,44,0,0,0.0,0.13,0.00,0.00
15min,AgWx,bigpiney,439,20OCT2020:06:30:00,39.5,12.41,39.0,38.0,45.2,47.5,38.0,48,55,44,0.429,26.5,27.3,23.0,6.577,5.3,285,52,10.9,0.00021,0.00030,42.9,44.3,44,0,0,0.0,0.13,0.00,0.00
15min,AgWx,bigpiney,439,20OCT2020:06:45:00,40.1,12.41,40.4,43.1,38.9,45.8,36.0,57,62,47,0.456,25.0,28.1,23.7,5.678,4.0,72,73,13.9,0.00008,0.00013,42.9,44.4,44,0,0,0.0,0.13,0.00,0.00
15min,AgWx,bigpiney,439,20OCT2020:07:00:00,40.6,12.41,46.1,45.8,43.8,46.9,41.1,52,56,47,0.516,27.2,28.5,24.7,6.905,6.9,259,42,13.3,0.00024,0.00032,42.9,44.4,44,0,0,0.0,0.13,0.00,0.00
15min,AgWx,bigpiney,439,20OCT2020:07:15:00,41.5,12.39,47.1,45.8,43.5,45.8,40.4,51,56,49,0.512,26.7,27.9,25.3,5.459,3.9,297,59,6.7,0.00012,0.00018,42.8,44.4,44,0,0,0.0,0.13,0.00,0.00